{"data":{"norad_id":67777,"epoch":"2026-05-25T04:06:33.559200Z","epoch_age_seconds":64267,"freshness":"FRESH","line1":"1 67777U 26030P   26145.17122175  .00002838  00000+0  40120-3 0  9999","line2":"2 67777  51.8957 227.5009 0001090  61.5523 298.5549 14.79918957 16603","mean_motion":14.79918957,"eccentricity":0.000109,"inclination_deg":51.8957,"raan_deg":227.5009,"arg_perigee_deg":61.5523,"mean_anomaly_deg":298.5549,"bstar":0.0004012,"rev_number":1660,"period_min":97.302625470727,"perigee_km":628.81611864805,"apogee_km":630.34380094529,"semimajor_km":7007.7169597967,"source":"CELESTRAK","updated_at":"2026-05-25T13:38:07.258173Z"}}